Flag for Switzerland Weather past 2 weeks in Lucerne, Lucerne, Switzerland

Now
34 °F

Chilly.


Feels Like: 34 °F
Forecast: 35 / 57 °F
Wind: 1 mph from Northwest

Location: Giswil


UV Index: 3 (Moderate)

Visibility: N/A


Pressure: 30.03 "Hg

Humidity: 98%

Dew point: 34 °F

Location of LucerneLocation

Historic Weather in Lucerne

°F

Lucerne temperature yesterday

Maximum temperature yesterday: 60 °F (at 6:00 PM)
Minimum temperature yesterday: 27 °F (at 7:00 AM)
Average temperature yesterday: 41 °F

Past Weeks' High & Low Weather Summary

 TemperatureHumidityPressure
High69 °F (Apr 11, 5:00 PM)100% (Apr 7, 4:00 AM)30.36 "Hg (Apr 7, 4:00 AM)
Low27 °F (Apr 17, 7:00 AM)32% (Apr 10, 5:00 PM)29.68 "Hg (Apr 4, 4:00 PM)
Average50 °F73%30.10 "Hg
* Reported Apr 3 10:00 PM — Apr 18 10:00 PM, Lucerne, Weather by CustomWeather, © 2014

Note: Actual official high and low records may vary slightly from our data, if they occured in-between our weather recording intervals... More about our weather records

Advertising

Historic Weather Conditions — Data for Previous 24 hours

 ConditionsComfort  
Time TempWeatherWind HumidityBarometerVisibility
10:00 PM
Apr 18
34 °FChilly.1 mph98%30.03 "HgN/A
9:00 PM33 °FChilly.3 mph97%30.05 "HgN/A
8:00 PM36 °FChilly.1 mph92%30.03 "HgN/A
7:00 PM38 °FChilly.13 mph91%30.00 "HgN/A
6:00 PM47 °FCool.7 mph88%29.88 "HgN/A
5:00 PM50 °FCool.1 mph75%29.86 "HgN/A
4:00 PM51 °FCool.2 mph66%29.87 "HgN/A
3:00 PM51 °FCool.3 mph68%29.88 "HgN/A
2:00 PM51 °FCool.2 mph68%29.88 "HgN/A
1:00 PM51 °FCool.5 mph62%29.90 "HgN/A
12:00 PM51 °FCool.1 mph61%29.90 "HgN/A
11:00 AM50 °FCool.2 mph69%29.91 "HgN/A
10:00 AM47 °FCool.1 mph70%29.93 "HgN/A
9:00 AM43 °FQuite cool.1 mph79%29.96 "HgN/A
8:00 AM40 °FChilly.1 mph83%29.99 "HgN/A
7:00 AM35 °FChilly.2 mph88%30.01 "HgN/A
6:00 AM33 °FChilly.2 mph91%30.02 "HgN/A
5:00 AM34 °FChilly.2 mph88%30.04 "HgN/A
4:00 AM32 °FChilly.1 mph88%30.05 "HgN/A
3:00 AM35 °FChilly.3 mph82%30.05 "HgN/A
2:00 AM34 °FChilly.2 mph87%30.08 "HgN/A
Weather by CustomWeather, © 2014

See weather overview